EN

Hourly Weather Lady

Today, 4 August, Wednesday

Time Temperature Precipitation Wind Pressure Humidity
00:00 +17°C° 0 mm 2 mps 748 mmHg 66%
01:00 +17°C° 0 mm 2 mps 748 mmHg 67%
02:00 +16°C° 0 mm 2 mps 748 mmHg 68%
03:00 +16°C° 0 mm 2 mps 748 mmHg 70%
04:00 +15°C° 0 mm 2 mps 748 mmHg 72%
05:00 +15°C° 0 mm 2 mps 748 mmHg 74%
06:00 +16°C° 0 mm 1 mps 748 mmHg 72%
07:00 +18°C° 0 mm 1 mps 748 mmHg 71%
08:00 +19°C° 0 mm 1 mps 748 mmHg 69%
09:00 +20°C° 0 mm 1 mps 748 mmHg 65%
10:00 +21°C° 0 mm 1 mps 748 mmHg 62%
11:00 +23°C° 0 mm 1 mps 748 mmHg 59%
12:00 +21°C° 1.1 mm 2 mps 748 mmHg 67%
13:00 +20°C° 1.1 mm 2 mps 748 mmHg 74%
14:00 +19°C° 1.1 mm 2 mps 747 mmHg 82%
15:00 +18°C° 0.6 mm 2 mps 747 mmHg 86%
16:00 +17°C° 0.6 mm 2 mps 747 mmHg 90%
17:00 +16°C° 0.6 mm 3 mps 747 mmHg 94%
18:00 +16°C° 0.1 mm 2 mps 747 mmHg 94%
19:00 +16°C° 0.1 mm 2 mps 747 mmHg 95%
20:00 +16°C° 0.1 mm 1 mps 747 mmHg 95%
21:00 +16°C° 0 mm 1 mps 747 mmHg 94%
22:00 +16°C° 0 mm 1 mps 747 mmHg 94%
23:00 +15°C° 0 mm 0 mps 747 mmHg 93%

Tomorrow, 5 August, Thursday

Time Temperature Precipitation Wind Pressure Humidity
00:00 +16°C° 0 mm 1 mps 747 mmHg 94%
01:00 +15°C° 0 mm 1 mps 747 mmHg 94%
02:00 +15°C° 0 mm 2 mps 746 mmHg 95%
03:00 +15°C° 0 mm 2 mps 746 mmHg 95%
04:00 +15°C° 0 mm 2 mps 746 mmHg 96%
05:00 +15°C° 0 mm 2 mps 746 mmHg 96%
06:00 +15°C° 0 mm 2 mps 746 mmHg 93%
07:00 +16°C° 0 mm 2 mps 746 mmHg 90%
08:00 +17°C° 0 mm 2 mps 746 mmHg 87%
09:00 +18°C° 0 mm 2 mps 745 mmHg 81%
10:00 +19°C° 0 mm 2 mps 745 mmHg 74%
11:00 +21°C° 0 mm 3 mps 745 mmHg 68%
12:00 +21°C° 0 mm 3 mps 745 mmHg 66%
13:00 +21°C° 0 mm 3 mps 745 mmHg 65%
14:00 +22°C° 0 mm 3 mps 744 mmHg 63%
15:00 +21°C° 0.1 mm 3 mps 744 mmHg 66%
16:00 +21°C° 0.1 mm 3 mps 744 mmHg 70%
17:00 +21°C° 0.1 mm 3 mps 744 mmHg 73%
18:00 +20°C° 0.1 mm 3 mps 743 mmHg 77%
19:00 +19°C° 0.1 mm 4 mps 743 mmHg 81%
20:00 +18°C° 0.1 mm 4 mps 742 mmHg 84%
21:00 +18°C° 0 mm 4 mps 742 mmHg 85%
22:00 +17°C° 0 mm 4 mps 742 mmHg 86%
23:00 +16°C° 0 mm 5 mps 742 mmHg 87%

Day after tomorrow, 6 August, Friday

Time Temperature Precipitation Wind Pressure Humidity
00:00 +16°C° 0.1 mm 5 mps 741 mmHg 89%
01:00 +15°C° 0.1 mm 5 mps 741 mmHg 90%
02:00 +15°C° 0.1 mm 5 mps 740 mmHg 92%
03:00 +15°C° 0.8 mm 5 mps 740 mmHg 93%
04:00 +14°C° 0.8 mm 5 mps 740 mmHg 94%
05:00 +14°C° 0.8 mm 5 mps 739 mmHg 96%
06:00 +13°C° 1.1 mm 5 mps 739 mmHg 96%
07:00 +13°C° 1.1 mm 5 mps 739 mmHg 96%
08:00 +13°C° 1.1 mm 5 mps 739 mmHg 97%
09:00 +13°C° 1.2 mm 4 mps 739 mmHg 97%
10:00 +14°C° 1.2 mm 4 mps 740 mmHg 97%
11:00 +14°C° 1.2 mm 4 mps 740 mmHg 97%
12:00 +14°C° 0.7 mm 4 mps 740 mmHg 96%
13:00 +14°C° 0.7 mm 4 mps 740 mmHg 96%
14:00 +14°C° 0.7 mm 3 mps 740 mmHg 96%
15:00 +14°C° 0.1 mm 3 mps 740 mmHg 96%
16:00 +16°C° 0.1 mm 3 mps 741 mmHg 96%
17:00 +16°C° 0.1 mm 3 mps 741 mmHg 95%
18:00 +16°C° 0 mm 3 mps 741 mmHg 96%
19:00 +16°C° 0 mm 3 mps 741 mmHg 96%
20:00 +16°C° 0 mm 3 mps 741 mmHg 97%
21:00 +14°C° 0 mm 3 mps 741 mmHg 97%
22:00 +14°C° 0 mm 3 mps 741 mmHg 97%
23:00 +14°C° 0 mm 3 mps 742 mmHg 97%

7 August, Saturday

Time Temperature Precipitation Wind Pressure Humidity
00:00 +14°C° 0 mm 3 mps 742 mmHg 97%
01:00 +14°C° 0 mm 3 mps 742 mmHg 97%
02:00 +14°C° 0 mm 3 mps 742 mmHg 97%
03:00 +14°C° 0 mm 3 mps 742 mmHg 97%
04:00 +14°C° 0 mm 3 mps 742 mmHg 97%
05:00 +14°C° 0 mm 3 mps 742 mmHg 97%
06:00 +14°C° 0 mm 3 mps 743 mmHg 94%
07:00 +16°C° 0 mm 3 mps 743 mmHg 91%
08:00 +17°C° 0 mm 3 mps 743 mmHg 88%
09:00 +18°C° 0.1 mm 3 mps 743 mmHg 83%
10:00 +19°C° 0.1 mm 3 mps 744 mmHg 79%
11:00 +20°C° 0.1 mm 4 mps 744 mmHg 74%
12:00 +20°C° 0.2 mm 4 mps 744 mmHg 72%
13:00 +21°C° 0.2 mm 4 mps 744 mmHg 69%
14:00 +22°C° 0.2 mm 4 mps 744 mmHg 67%
15:00 +22°C° 0.2 mm 3 mps 744 mmHg 66%
16:00 +22°C° 0.2 mm 3 mps 744 mmHg 64%
17:00 +22°C° 0.2 mm 3 mps 744 mmHg 62%
18:00 +21°C° 0.1 mm 2 mps 744 mmHg 68%
19:00 +20°C° 0.1 mm 2 mps 744 mmHg 73%
20:00 +19°C° 0.1 mm 1 mps 745 mmHg 78%
21:00 +19°C° 0 mm 1 mps 745 mmHg 81%
22:00 +17°C° 0 mm 2 mps 745 mmHg 83%
23:00 +16°C° 0 mm 2 mps 745 mmHg 86%

8 August, Sunday

Time Temperature Precipitation Wind Pressure Humidity
00:00 +16°C° 0 mm 2 mps 745 mmHg 86%
01:00 +15°C° 0 mm 2 mps 745 mmHg 86%
02:00 +15°C° 0 mm 2 mps 746 mmHg 86%
03:00 +15°C° 0 mm 2 mps 746 mmHg 86%
04:00 +15°C° 0 mm 2 mps 746 mmHg 86%
05:00 +14°C° 0 mm 2 mps 746 mmHg 86%
06:00 +16°C° 0 mm 2 mps 746 mmHg 81%
07:00 +18°C° 0 mm 2 mps 746 mmHg 75%
08:00 +20°C° 0 mm 2 mps 746 mmHg 70%
09:00 +21°C° 0 mm 2 mps 746 mmHg 64%
10:00 +24°C° 0 mm 2 mps 746 mmHg 58%
11:00 +26°C° 0 mm 3 mps 747 mmHg 53%
12:00 +26°C° 0 mm 2 mps 747 mmHg 51%
13:00 +27°C° 0 mm 2 mps 747 mmHg 49%
14:00 +28°C° 0 mm 2 mps 747 mmHg 47%
15:00 +27°C° 0 mm 2 mps 747 mmHg 52%
16:00 +26°C° 0 mm 2 mps 747 mmHg 56%
17:00 +26°C° 0 mm 2 mps 747 mmHg 61%
18:00 +25°C° 0.1 mm 2 mps 747 mmHg 66%
19:00 +24°C° 0.1 mm 2 mps 747 mmHg 70%
20:00 +23°C° 0.1 mm 2 mps 747 mmHg 75%
21:00 +21°C° 0 mm 2 mps 747 mmHg 78%
22:00 +20°C° 0 mm 2 mps 747 mmHg 82%
23:00 +20°C° 0 mm 1 mps 748 mmHg 86%

9 August, Monday

Time Temperature Precipitation Wind Pressure Humidity
00:00 +19°C° 0 mm 2 mps 748 mmHg 87%
01:00 +19°C° 0 mm 2 mps 748 mmHg 89%
02:00 +18°C° 0 mm 2 mps 748 mmHg 91%
03:00 +18°C° 0 mm 2 mps 748 mmHg 92%
04:00 +17°C° 0 mm 2 mps 748 mmHg 93%
05:00 +17°C° 0 mm 2 mps 748 mmHg 93%
06:00 +18°C° 0 mm 2 mps 748 mmHg 89%
07:00 +19°C° 0 mm 3 mps 748 mmHg 85%
08:00 +20°C° 0 mm 3 mps 749 mmHg 80%
09:00 +21°C° 0 mm 3 mps 749 mmHg 76%
10:00 +22°C° 0 mm 3 mps 749 mmHg 71%
11:00 +23°C° 0 mm 4 mps 749 mmHg 67%
12:00 +23°C° 0.1 mm 4 mps 749 mmHg 69%
13:00 +22°C° 0.1 mm 4 mps 750 mmHg 71%
14:00 +21°C° 0.1 mm 4 mps 750 mmHg 74%
15:00 +22°C° 0 mm 3 mps 750 mmHg 70%
16:00 +24°C° 0 mm 3 mps 750 mmHg 66%
17:00 +24°C° 0 mm 2 mps 750 mmHg 62%
18:00 +23°C° 0 mm 2 mps 750 mmHg 66%
19:00 +21°C° 0 mm 2 mps 750 mmHg 70%
20:00 +20°C° 0 mm 1 mps 750 mmHg 74%
21:00 +19°C° 0 mm 2 mps 750 mmHg 76%
22:00 +18°C° 0 mm 2 mps 750 mmHg 78%
23:00 +17°C° 0 mm 2 mps 750 mmHg 79%
Show more